Location: Hopville
(44.8032°N, 123.1329°W)
Time: 04:32:32
(UTC+00:00)

Meteor 1-16 Rocket - Pass Details

Date: 24 January 2021
Orbit: 790 x 908 km, 81.2° (Epoch: 26 February)

Event Time Altitude Azimuth Distance (km) Brightness Sun altitude
Rises 13:56:28 0° 200° (SSW) 3,501 7.3 -18.2°
Reaches altitude 10° 13:58:57 10° 204° (SSW) 2,573 6.6 -17.8°
Maximum altitude 14:04:46 60° 284° (WNW) 1,031 4.3 -16.8°
Drops below altitude 10° 14:10:39 10° 4° (N) 2,598 6.7 -15.7°
Sets 14:13:10 0° 8° (N) 3,537 7.4 -15.3°
